DW8167 Weather Reports


Display with metric or nautical units.
time (UTC)temp
F
wind
direction
speed
MPH
gust
MPH
rain 1hr
in
rain 24hr
in
rain mn
in
humidity
%
barometer
mb
20260510225050 75 352 0.0 0.0 0.00 0.00 0.00 75 1016.4
20260510224547 76 353 0.0 0.0 0.00 0.00 0.00 72 1016.6
20260510224044 78 352 0.0 0.0 0.00 0.00 0.00 68 1016.6
20260510223541 78 330 0.0 0.0 0.00 0.00 0.00 65 1016.5
20260510223038 78 333 0.0 0.0 0.00 0.00 0.00 69 1016.8
20260510222535 78 339 0.0 0.0 0.00 0.00 0.00 72 1016.7
20260510222032 79 338 0.0 0.0 0.00 0.00 0.00 71 1016.7
20260510221527 79 338 0.0 0.0 0.00 0.00 0.00 70 1016.6
20260510221024 80 338 0.0 0.0 0.00 0.00 0.00 67 1016.7
20260510220520 79 337 0.0 0.0 0.00 0.00 0.00 67 1016.7
20260510220016 79 356 0.0 0.0 0.00 0.00 0.00 69 1016.9
20260510215514 79 357 0.0 0.0 0.00 0.00 0.00 70 1016.9
20260510215012 80 336 0.0 0.0 0.00 0.00 0.00 67 1016.8
20260510214508 80 341 0.0 0.0 0.00 0.00 0.00 66 1016.6
20260510214004 79 355 0.0 0.0 0.00 0.00 0.00 72 1016.8
20260510213502 79 347 0.0 2.0 0.00 0.00 0.00 69 1016.7
20260510212957 79 299 4.0 6.0 0.00 0.00 0.00 69 1016.6
20260510212455 79 358 0.0 0.0 0.00 0.00 0.00 70 1016.6
20260510211951 79 318 0.0 0.0 0.00 0.00 0.00 70 1016.5
20260510211449 78 324 4.0 4.0 0.00 0.00 0.00 71 1016.7
20260510210948 79 317 3.0 4.0 0.00 0.00 0.00 70 1016.7
20260510210444 77 341 0.0 0.0 0.00 0.00 0.00 73 1016.6
20260510205944 78 2 0.0 0.0 0.00 0.00 0.00 73 1016.6
20260510205439 78 5 0.0 0.0 0.00 0.00 0.00 73 1016.9
20260510204935 79 336 0.0 2.0 0.00 0.00 0.00 70 1016.7
20260510204432 79 325 0.0 0.0 0.00 0.00 0.00 70 1016.8
20260510203928 79 312 5.0 6.0 0.00 0.00 0.00 72 1016.7
20260510203426 79 9 4.0 4.0 0.00 0.00 0.00 72 1016.8
20260510202920 78 351 0.0 0.0 0.00 0.00 0.00 71 1016.9
20260510202416 78 346 5.0 6.0 0.00 0.00 0.00 71 1016.9
20260510201913 78 344 0.0 0.0 0.00 0.00 0.00 71 1016.9
20260510201410 78 355 0.0 0.0 0.00 0.00 0.00 70 1016.9
20260510200907 77 323 4.0 4.0 0.00 0.00 0.00 74 1017.0
20260510200406 77 344 2.0 6.0 0.00 0.00 0.00 73 1017.2
20260510195901 76 335 0.0 0.0 0.00 0.00 0.00 74 1017.1
20260510195357 76 344 1.0 6.0 0.00 0.00 0.00 74 1017.0
20260510194852 76 295 6.0 6.0 0.00 0.00 0.00 75 1017.1
20260510194349 76 346 0.0 4.0 0.00 0.00 0.00 73 1017.1
20260510193845 77 354 2.0 2.0 0.00 0.00 0.00 74 1017.0
20260510193340 77 344 2.0 4.0 0.00 0.00 0.00 77 1017.0
20260510192835 75 355 0.0 0.0 0.00 0.00 0.00 77 1017.3
20260510192331 76 353 0.0 0.0 0.00 0.00 0.00 78 1017.3
20260510191822 75 359 0.0 0.0 0.00 0.00 0.00 78 1017.5
20260510191317 76 0 0.0 2.0 0.00 0.00 0.00 75 1017.4
20260510190816 76 316 5.0 6.0 0.00 0.00 0.00 78 1017.6
20260510190313 76 319 2.0 6.0 0.00 0.00 0.00 76 1017.3
20260510185809 75 324 0.0 0.0 0.00 0.00 0.00 77 1017.3
20260510185307 75 340 0.0 0.0 0.00 0.00 0.00 77 1017.6
20260510184804 74 349 0.0 0.0 0.00 0.00 0.00 80 1017.5
20260510184300 73 331 0.0 0.0 0.00 0.00 0.00 81 1017.9
20260510183755 72 346 0.0 0.0 0.00 0.00 0.00 84 1017.9
20260510183250 72 329 0.0 0.0 0.00 0.00 0.00 85 1017.9
20260510182747 72 340 0.0 0.0 0.00 0.00 0.00 84 1017.7
20260510182243 72 341 0.0 0.0 0.00 0.00 0.00 86 1017.8
20260510181740 73 335 0.0 0.0 0.00 0.00 0.00 85 1018.1
20260510181237 73 345 0.0 0.0 0.00 0.00 0.00 87 1017.9
20260510180733 71 1 0.0 0.0 0.00 0.00 0.00 87 1018.2
20260510180230 71 1 0.0 0.0 0.00 0.00 0.00 86 1018.1
20260510175727 71 322 0.0 0.0 0.00 0.00 0.00 86 1018.2
20260510175222 70 348 0.0 0.0 0.00 0.00 0.00 88 1018.1
20260510174720 70 357 0.0 0.0 0.00 0.00 0.00 90 1018.3
20260510174217 70 4 0.0 0.0 0.00 0.00 0.00 92 1018.6
20260510173713 70 350 0.0 0.0 0.00 0.00 0.00 91 1018.4
20260510173209 70 341 0.0 0.0 0.00 0.00 0.00 90 1018.3
20260510172704 70 1 0.0 0.0 0.00 0.00 0.00 91 1018.6
20260510172201 69 355 0.0 0.0 0.00 0.00 0.00 92 1018.4
20260510171658 69 7 0.0 0.0 0.00 0.00 0.00 91 1018.6
20260510171155 69 354 0.0 0.0 0.00 0.00 0.00 91 1018.4
20260510170652 69 349 0.0 0.0 0.00 0.00 0.00 91 1018.7
20260510170148 69 2 0.0 0.0 0.00 0.00 0.00 92 1018.6
20260510165644 69 358 0.0 0.0 0.00 0.00 0.00 92 1018.7
20260510165140 69 352 0.0 0.0 0.00 0.00 0.00 94 1018.5
20260510164638 68 350 0.0 0.0 0.00 0.00 0.00 94 1018.6
20260510164135 68 353 0.0 0.0 0.00 0.00 0.00 95 1018.5
20260510163630 67 346 0.0 0.0 0.00 0.00 0.00 96 1018.6
20260510163125 67 352 0.0 0.0 0.00 0.00 0.00 96 1018.8
20260510162620 67 346 0.0 0.0 0.00 0.00 0.00 96 1018.5
20260510162117 67 344 0.0 0.0 0.00 0.00 0.00 97 1018.5
20260510161612 67 338 0.0 0.0 0.00 0.00 0.00 97 1018.7
20260510161110 67 340 0.0 0.0 0.00 0.00 0.00 98 1018.4
20260510160607 67 348 0.0 0.0 0.00 0.00 0.00 96 1018.5
20260510160106 67 348 0.0 0.0 0.00 0.00 0.00 97 1018.6
20260510155603 67 349 0.0 0.0 0.00 0.00 0.00 97 1018.6
20260510155100 67 359 0.0 0.0 0.00 0.00 0.00 97 1018.7
20260510154555 67 359 0.0 0.0 0.00 0.00 0.00 98 1018.7
20260510154051 67 356 0.0 0.0 0.00 0.00 0.00 99 1018.7
20260510153546 67 356 0.0 0.0 0.00 0.00 0.00 98 1018.7
20260510153043 66 4 0.0 0.0 0.00 0.00 0.00 98 1018.6
20260510152540 67 352 0.0 0.0 0.00 0.00 0.00 98 1018.6
20260510152036 67 352 0.0 0.0 0.00 0.00 0.00 98 1018.7
20260510151533 67 350 0.0 0.0 0.00 0.00 0.00 98 1018.8
20260510151031 66 351 0.0 0.0 0.00 0.00 0.00 99 1018.6
20260510150525 66 1 0.0 0.0 0.00 0.00 0.00 99 1018.5
20260510150022 67 359 0.0 0.0 0.00 0.00 0.00 99 1018.6
20260510145518 66 358 0.0 0.0 0.00 0.00 0.00 99 1018.6
20260510145015 66 359 0.0 0.0 0.00 0.00 0.00 99 1018.4
20260510144511 66 327 0.0 0.0 0.00 0.00 0.00 99 1018.7
20260510144008 66 354 0.0 0.0 0.00 0.00 0.00 99 1018.6
20260510143503 66 359 0.0 0.0 0.00 0.00 0.00 99 1018.4
20260510143000 66 352 0.0 0.0 0.00 0.00 0.00 99 1018.5
20260510142456 66 356 0.0 0.0 0.00 0.00 0.00 99 1018.6
20260510141953 65 357 0.0 0.0 0.00 0.00 0.00 99 1018.3
20260510141450 65 350 0.0 0.0 0.00 0.00 0.00 99 1018.5
20260510140947 65 355 0.0 0.0 0.00 0.00 0.00 99 1018.4
20260510140443 65 355 0.0 0.0 0.00 0.00 0.00 99 1018.5
20260510135942 65 356 0.0 0.0 0.00 0.00 0.00 99 1018.5
20260510135438 65 355 0.0 0.0 0.00 0.00 0.00 99 1018.4
20260510134935 64 355 0.0 0.0 0.00 0.00 0.00 99 1018.2
20260510134432 64 355 0.0 0.0 0.00 0.00 0.00 99 1018.0
20260510133929 64 341 0.0 0.0 0.00 0.00 0.00 99 1018.1
20260510133425 64 350 0.0 0.0 0.00 0.00 0.00 99 1018.3
20260510132920 64 355 0.0 0.0 0.00 0.00 0.00 99 1018.1
20260510132418 64 356 0.0 0.0 0.00 0.00 0.00 99 1018.3
20260510131915 64 353 0.0 0.0 0.00 0.00 0.00 99 1018.1
20260510131413 64 348 0.0 0.0 0.00 0.00 0.00 99 1018.2
20260510130909 64 357 0.0 0.0 0.00 0.00 0.00 99 1018.1
20260510130406 64 349 0.0 0.0 0.00 0.00 0.00 99 1017.9
20260510125903 64 349 0.0 0.0 0.00 0.00 0.00 99 1017.7
20260510125359 64 349 0.0 0.0 0.00 0.00 0.00 99 1017.8
20260510124856 64 349 0.0 0.0 0.00 0.00 0.00 99 1017.6
20260510124353 64 349 0.0 0.0 0.00 0.00 0.00 99 1017.5
20260510123848 64 349 0.0 0.0 0.00 0.00 0.00 99 1017.6
20260510123344 64 349 0.0 0.0 0.00 0.00 0.00 99 1017.4
20260510122841 64 348 0.0 0.0 0.00 0.00 0.00 99 1017.5
20260510122336 64 344 0.0 0.0 0.00 0.00 0.00 99 1017.4
20260510121833 64 356 0.0 0.0 0.00 0.00 0.00 99 1017.5
20260510121331 64 356 0.0 0.0 0.00 0.00 0.00 99 1017.6
20260510120828 64 356 0.0 0.0 0.00 0.00 0.00 99 1017.5
20260510120325 64 356 0.0 0.0 0.00 0.00 0.00 99 1017.3
20260510115820 64 356 0.0 0.0 0.00 0.00 0.00 99 1017.3
20260510115318 63 356 0.0 0.0 0.00 0.00 0.00 99 1017.2
20260510114813 63 356 0.0 0.0 0.00 0.00 0.00 99 1017.1
20260510114311 63 356 0.0 0.0 0.00 0.00 0.00 99 1017.0
20260510113805 63 356 0.0 0.0 0.00 0.00 0.00 99 1017.2
20260510113303 63 357 0.0 0.0 0.00 0.00 0.00 99 1017.0
20260510112759 63 0 0.0 0.0 0.00 0.00 0.00 99 1016.7
20260510112256 63 1 0.0 0.0 0.00 0.00 0.00 99 1016.9
20260510111752 63 1 0.0 0.0 0.00 0.00 0.00 99 1016.7
20260510111249 63 1 0.0 0.0 0.00 0.00 0.00 99 1016.4
20260510110748 63 1 0.0 0.0 0.00 0.00 0.00 99 1016.3
20260510110247 63 1 0.0 0.0 0.00 0.00 0.00 99 1016.1
20260510105746 63 1 0.0 0.0 0.00 0.00 0.00 99 1016.0
20260510105241 63 1 0.0 0.0 0.00 0.00 0.00 99 1015.9
20260510104738 63 1 0.0 0.0 0.00 0.00 0.00 99 1015.7
20260510104236 63 1 0.0 0.0 0.00 0.00 0.00 99 1015.7
20260510103732 63 1 0.0 0.0 0.00 0.00 0.00 99 1015.7
20260510103229 63 0 0.0 0.0 0.00 0.00 0.00 99 1015.6
20260510102729 63 0 0.0 0.0 0.00 0.00 0.00 99 1015.4
20260510102225 63 0 0.0 0.0 0.00 0.00 0.00 99 1015.3
20260510101723 63 0 0.0 0.0 0.00 0.00 0.00 99 1015.4
20260510101221 63 0 0.0 0.0 0.00 0.00 0.00 99 1015.4
20260510100716 63 0 0.0 0.0 0.00 0.00 0.00 99 1015.2
20260510100215 63 0 0.0 0.0 0.00 0.00 0.00 99 1015.2
20260510095710 63 0 0.0 0.0 0.00 0.00 0.00 99 1015.2
20260510095205 63 0 0.0 0.0 0.00 0.00 0.00 99 1015.3
20260510094703 63 0 0.0 0.0 0.00 0.00 0.00 99 1015.1
20260510094200 63 0 0.0 0.0 0.00 0.00 0.00 99 1015.1
20260510093655 63 0 0.0 0.0 0.00 0.00 0.00 99 1015.1
20260510093153 63 0 0.0 0.0 0.00 0.00 0.00 99 1015.0
20260510092649 63 0 0.0 0.0 0.00 0.00 0.00 99 1014.9
20260510092145 63 0 0.0 0.0 0.00 0.00 0.00 99 1015.0
20260510091641 63 0 0.0 0.0 0.00 0.00 0.00 99 1014.7
20260510091137 63 0 0.0 0.0 0.00 0.00 0.00 99 1014.7
20260510090634 63 0 0.0 0.0 0.00 0.00 0.00 99 1014.6
20260510090131 63 0 0.0 0.0 0.00 0.00 0.00 99 1014.5
20260510085626 63 0 0.0 0.0 0.00 0.00 0.00 99 1014.7
20260510085121 63 0 0.0 0.0 0.00 0.00 0.00 99 1014.5
20260510084618 63 0 0.0 0.0 0.00 0.00 0.00 99 1014.6
20260510084114 63 0 0.0 0.0 0.00 0.00 0.00 99 1014.4
20260510083611 63 0 0.0 0.0 0.00 0.00 0.00 99 1014.4
20260510083107 63 0 0.0 0.0 0.00 0.00 0.00 99 1014.3
20260510082604 63 0 0.0 0.0 0.00 0.00 0.00 99 1014.3
20260510082059 63 0 0.0 0.0 0.00 0.00 0.00 99 1014.4
20260510081554 63 0 0.0 0.0 0.00 0.00 0.00 99 1014.3
20260510081050 63 0 0.0 0.0 0.00 0.00 0.00 99 1014.3
20260510080550 63 0 0.0 0.0 0.00 0.00 0.00 99 1014.3
20260510080047 63 0 0.0 0.0 0.00 0.00 0.00 99 1014.3
20260510075544 63 0 0.0 0.0 0.00 0.00 0.00 99 1014.3
20260510075041 62 0 0.0 0.0 0.00 0.00 0.00 99 1014.3
20260510074539 62 0 0.0 0.0 0.00 0.00 0.00 99 1014.3
20260510074034 62 0 0.0 0.0 0.00 0.00 0.00 99 1014.2
20260510073530 62 0 0.0 0.0 0.00 0.00 0.00 99 1014.0
20260510073027 62 0 0.0 0.0 0.00 0.00 0.00 99 1014.1
20260510072524 62 0 0.0 0.0 0.00 0.00 0.00 99 1014.1
20260510072019 62 0 0.0 0.0 0.00 0.00 0.00 99 1013.9
20260510071515 62 0 0.0 0.0 0.00 0.00 0.00 99 1014.1
20260510071014 62 0 0.0 0.0 0.00 0.00 0.00 99 1014.1
20260510070511 62 0 0.0 0.0 0.00 0.00 0.00 99 1014.2
20260510070007 63 0 0.0 0.0 0.00 0.00 0.00 99 1014.3
20260510065504 63 0 0.0 0.0 0.00 0.00 0.00 99 1014.3
20260510065000 63 0 0.0 0.0 0.00 0.00 0.00 99 1014.3
20260510064457 63 0 0.0 0.0 0.00 0.00 0.00 99 1014.4
20260510063954 63 0 0.0 0.0 0.00 0.00 0.00 99 1014.3
20260510063450 63 0 0.0 0.0 0.00 0.00 0.00 99 1014.1
20260510062948 63 0 0.0 0.0 0.00 0.00 0.00 99 1014.3
20260510062443 63 0 0.0 0.0 0.00 0.00 0.00 99 1014.2
20260510061938 63 0 0.0 0.0 0.00 0.00 0.00 99 1014.2
20260510061435 63 0 0.0 0.0 0.00 0.00 0.00 99 1014.4
20260510060932 63 1 0.0 0.0 0.00 0.00 0.00 99 1014.5
20260510060429 63 352 0.0 0.0 0.00 0.00 0.00 99 1014.4
20260510055925 64 352 0.0 0.0 0.00 0.00 0.00 99 1014.4
20260510055420 64 352 0.0 0.0 0.00 0.00 0.00 99 1014.6
20260510054913 64 352 0.0 0.0 0.00 0.00 0.00 99 1014.8
20260510054409 64 352 0.0 0.0 0.00 0.00 0.00 99 1014.6
20260510053904 63 352 0.0 0.0 0.00 0.00 0.00 99 1014.8
20260510053359 64 352 0.0 0.0 0.00 0.00 0.00 99 1014.8
20260510052856 64 352 0.0 0.0 0.00 0.00 0.00 99 1014.5
20260510052351 64 352 0.0 0.0 0.00 0.00 0.00 99 1014.6
20260510051848 64 352 0.0 0.0 0.00 0.00 0.00 99 1014.4
20260510051344 64 352 0.0 0.0 0.00 0.00 0.00 99 1014.5
20260510050841 64 352 0.0 0.0 0.00 0.00 0.00 99 1015.0
20260510050338 65 352 0.0 0.0 0.00 0.00 0.00 99 1014.9
20260510045835 64 352 0.0 0.0 0.00 0.01 0.01 99 1014.8
20260510045332 65 352 0.0 0.0 0.00 0.01 0.01 99 1014.9
20260510044829 65 352 0.0 0.0 0.00 0.01 0.01 99 1014.8
20260510044326 65 352 0.0 0.0 0.00 0.01 0.01 99 1014.6
20260510043822 65 352 0.0 0.0 0.00 0.01 0.01 99 1014.6
20260510043318 65 352 0.0 0.0 0.00 0.01 0.01 99 1014.8
20260510042816 65 352 0.0 0.0 0.00 0.01 0.01 99 1014.8
20260510042312 66 352 0.0 0.0 0.00 0.01 0.01 99 1014.7
20260510041809 66 352 0.0 0.0 0.00 0.01 0.01 99 1014.8
20260510041305 66 352 0.0 0.0 0.00 0.01 0.01 99 1014.9
20260510040802 66 352 0.0 0.0 0.00 0.01 0.01 99 1014.5
20260510040254 66 352 0.0 0.0 0.00 0.01 0.01 99 1014.6
20260510035749 66 352 0.0 0.0 0.00 0.01 0.01 99 1014.9
20260510035245 66 352 0.0 0.0 0.00 0.01 0.01 99 1015.1
20260510034741 66 352 0.0 0.0 0.00 0.01 0.01 99 1014.8
20260510034239 66 352 0.0 0.0 0.00 0.01 0.01 99 1014.9
20260510033735 66 352 0.0 0.0 0.00 0.01 0.01 99 1015.1
20260510033233 66 352 0.0 0.0 0.00 0.01 0.01 99 1015.2
20260510032729 66 352 0.0 0.0 0.00 0.01 0.01 99 1015.1
20260510032225 66 352 0.0 0.0 0.00 0.01 0.01 99 1015.1
20260510031720 66 352 0.0 0.0 0.00 0.01 0.01 99 1015.2
20260510031216 66 352 0.0 0.0 0.00 0.01 0.01 99 1014.8
20260510030715 66 352 0.0 0.0 0.00 0.01 0.01 99 1015.1
20260510030214 66 351 0.0 0.0 0.00 0.01 0.01 99 1014.9
20260510025711 66 351 0.0 0.0 0.00 0.01 0.01 99 1014.7
20260510025208 66 351 0.0 0.0 0.00 0.01 0.01 99 1015.0
20260510024705 66 351 0.0 0.0 0.00 0.01 0.01 99 1014.8
20260510024201 66 351 0.0 0.0 0.00 0.01 0.01 99 1014.9
20260510023657 67 351 0.0 0.0 0.00 0.01 0.01 99 1014.7
20260510023154 67 351 0.0 0.0 0.00 0.01 0.01 99 1014.6
20260510022649 67 351 0.0 0.0 0.00 0.01 0.01 99 1014.5
20260510022144 67 351 0.0 0.0 0.00 0.01 0.01 99 1014.3
20260510021640 67 351 0.0 0.0 0.00 0.01 0.01 99 1014.4
20260510021138 66 350 0.0 0.0 0.00 0.01 0.01 99 1014.6
20260510020632 66 351 0.0 0.0 0.00 0.01 0.01 99 1014.3
20260510020127 66 351 0.0 0.0 0.00 0.01 0.01 99 1014.3
20260510015624 66 352 0.0 0.0 0.00 0.01 0.01 99 1014.2
20260510015120 66 352 0.0 0.0 0.00 0.01 0.01 99 1014.1
20260510014616 66 352 0.0 0.0 0.00 0.01 0.01 99 1014.1
20260510014113 66 352 0.0 0.0 0.00 0.01 0.01 99 1013.9
20260510013608 66 352 0.0 0.0 0.00 0.01 0.01 99 1013.8
20260510013103 66 352 0.0 0.0 0.00 0.01 0.01 99 1013.9
20260510012557 66 352 0.0 0.0 0.00 0.01 0.01 99 1013.8
20260510012055 66 352 0.0 0.0 0.00 0.01 0.01 99 1013.7
20260510011554 66 352 0.0 0.0 0.00 0.01 0.01 99 1013.6
20260510011050 66 352 0.0 0.0 0.00 0.01 0.01 99 1013.6
20260510010547 66 352 0.0 0.0 0.00 0.01 0.01 99 1013.6
20260510010044 66 352 0.0 0.0 0.00 0.01 0.01 99 1013.4
20260510005539 67 352 0.0 0.0 0.00 0.01 0.01 99 1013.2
20260510005037 67 352 0.0 0.0 0.00 0.01 0.01 99 1013.2
20260510004535 67 352 0.0 0.0 0.00 0.01 0.01 99 1013.3
20260510004033 67 352 0.0 0.0 0.00 0.01 0.01 99 1013.3
20260510003529 68 352 0.0 0.0 0.00 0.01 0.01 98 1013.4
20260510003024 68 352 0.0 0.0 0.00 0.01 0.01 97 1013.2
20260510002520 68 352 0.0 0.0 0.00 0.01 0.01 96 1013.0
20260510002017 68 352 0.0 0.0 0.00 0.01 0.01 96 1013.2
20260510001515 68 352 0.0 0.0 0.00 0.01 0.01 96 1013.4
20260510001013 68 352 0.0 0.0 0.00 0.01 0.01 95 1013.1
20260510000513 68 352 0.0 0.0 0.00 0.01 0.01 95 1013.1
20260510000010 69 352 0.0 0.0 0.00 0.01 0.01 95 1013.0
20260509235507 69 352 0.0 0.0 0.00 0.01 0.01 95 1012.9
20260509235003 69 352 0.0 0.0 0.00 0.01 0.01 94 1012.8
20260509234459 69 353 0.0 0.0 0.00 0.01 0.01 94 1012.5
20260509233957 69 353 0.0 0.0 0.00 0.01 0.01 94 1012.6
20260509233454 69 353 0.0 0.0 0.00 0.01 0.01 94 1012.5
20260509232950 69 353 0.0 0.0 0.00 0.01 0.01 93 1012.5
20260509232448 69 353 0.0 0.0 0.00 0.01 0.01 93 1012.6
20260509231944 70 353 0.0 0.0 0.00 0.01 0.01 92 1012.5
20260509231441 70 353 0.0 0.0 0.00 0.01 0.01 91 1012.6
20260509230939 70 352 0.0 0.0 0.00 0.01 0.01 91 1012.6
20260509230435 70 353 0.0 0.0 0.00 0.01 0.01 90 1012.3
20260509225931 70 353 0.0 0.0 0.00 0.01 0.01 90 1012.2
20260509225428 70 353 0.0 0.0 0.00 0.01 0.01 90 1012.5